Wind_Speed
9 7 6 5 5 4 4 4 4 5 5 5 5 5 5 4 3 2 1 0 0 1 1 2 3 3 4 4 4 5 5 6 6 7 7 7 7 8 9 9 10 10 11 11 12 12 13 14 14
10 9 8 7 6 5 5 5 5 6 6 5 5 4 4 4 3 2 1 2 1 1 1 2 3 4 4 5 5 5 6 6 6 6 7 7 7 8 9 9 10 11 11 12 12 13 13 14 14
11 11 10 9 8 7 6 5 5 5 5 5 4 4 3 3 3 2 2 2 2 2 2 2 3 3 4 4 5 5 6 6 6 6 6 7 7 8 9 10 10 11 12 13 13 14 14 14 14
13 12 11 10 9 8 7 5 5 5 4 3 3 3 3 2 2 2 2 2 2 2 2 2 3 3 4 5 5 5 6 6 6 6 7 7 7 9 9 10 11 12 12 13 13 14 14 15 15
15 14 13 11 10 10 8 6 5 4 4 3 2 2 2 2 1 1 2 2 2 2 2 2 2 4 4 5 5 5 6 6 7 7 7 7 8 9 10 11 11 12 12 12 12 13 14 14 15
15 15 15 14 11 10 9 7 6 4 4 3 2 1 1 1 1 1 1 2 2 2 2 2 2 3 4 4 5 5 6 7 8 8 8 9 10 10 11 11 12 12 12 12 13 13 13 14 14
17 15 15 14 12 11 9 8 7 5 4 3 2 1 0 0 1 1 1 1 2 2 2 2 2 3 4 4 5 5 6 7 8 8 9 10 10 11 12 12 12 12 12 12 13 13 13 13 14
18 16 15 14 12 11 10 7 6 5 4 3 2 1 1 1 1 1 1 1 1 1 2 2 2 3 3 4 5 6 6 7 8 8 9 10 10 11 11 12 12 12 12 13 13 13 14 14 14
18 17 17 15 13 11 9 7 6 5 4 4 3 2 1 1 1 1 1 1 1 2 2 2 3 3 3 4 5 6 7 7 8 9 9 9 10 11 12 12 13 13 13 13 13 14 14 14 15
18 17 17 15 13 11 9 8 6 5 4 4 4 3 2 2 2 2 2 2 2 2 2 3 3 4 4 5 6 6 7 8 8 9 9 10 10 11 12 13 13 13 13 13 14 14 15 15 15
19 17 15 14 12 10 7 7 6 4 4 4 4 4 3 2 2 3 3 3 2 2 2 3 3 4 4 5 6 6 7 8 9 9 9 10 10 11 12 13 14 14 14 14 15 15 14 14 14
19 17 15 13 11 10 8 6 5 4 4 4 4 3 2 2 2 2 2 2 2 2 2 3 3 4 4 5 6 7 8 8 9 9 10 10 11 12 12 13 14 15 15 15 15 15 15 14 13
18 16 14 12 10 10 8 6 4 4 4 4 4 3 3 3 3 3 3 2 2 2 2 3 3 3 4 4 5 7 8 9 9 10 11 11 12 12 13 14 15 15 15 15 15 15 14 14 14
18 16 14 12 10 9 7 6 5 4 4 4 3 3 3 3 2 3 2 2 2 2 2 3 3 3 4 5 5 7 8 9 10 10 11 11 12 13 14 15 15 15 15 15 15 14 14 14 14
17 16 14 12 9 8 7 6 5 5 4 3 4 4 3 3 2 2 2 2 2 2 2 2 3 3 4 5 5 7 8 9 10 10 11 12 12 14 15 15 16 16 16 15 15 15 15 14 14
17 16 14 12 11 9 8 6 6 5 4 4 4 4 3 3 2 2 2 1 1 1 2 2 2 3 4 5 6 7 8 9 10 11 11 12 13 14 15 16 16 16 16 16 15 15 15 14 13
16 14 13 12 11 9 8 6 6 5 4 4 4 3 3 3 2 2 2 1 1 0 1 1 2 3 5 6 7 8 9 10 10 11 12 13 14 15 16 16 17 17 16 16 16 15 15 14 13
15 14 13 12 10 9 8 7 6 5 4 4 4 3 3 3 2 2 2 2 1 1 0 1 2 4 5 7 8 9 10 10 11 12 13 14 14 15 16 16 17 17 17 17 16 16 15 14 13
15 14 13 12 11 9 9 8 7 6 5 4 4 4 3 3 2 2 2 2 2 1 1 1 2 4 6 7 8 9 10 11 12 12 13 14 15 15 16 17 17 18 18 17 17 16 15 14 13
14 13 12 12 11 10 9 7 6 6 5 4 3 4 4 3 3 3 3 2 2 1 1 2 3 5 6 7 8 9 11 11 13 13 14 15 15 16 16 17 18 18 18 17 17 17 16 14 13
12 13 12 12 11 10 8 6 6 5 4 3 3 4 4 3 3 3 3 3 3 1 1 2 3 5 6 7 9 10 11 12 13 14 15 16 16 16 17 17 18 18 18 18 17 17 16 15 13
12 12 12 11 10 8 7 5 5 5 4 4 3 3 3 4 3 3 3 3 2 1 1 2 4 5 7 8 9 10 11 12 13 15 15 16 17 17 17 18 18 18 18 18 18 17 16 15 14
13 12 12 11 9 8 7 6 5 5 4 4 3 3 4 4 4 3 3 3 2 2 2 3 4 6 7 8 9 10 12 13 14 15 16 16 17 18 18 19 19 19 19 18 18 17 16 15 14
14 13 12 11 9 8 7 6 5 4 3 3 3 3 3 3 3 3 3 2 2 2 3 3 5 6 7 8 10 11 12 14 15 15 16 16 17 18 19 19 19 19 19 18 18 17 16 15 14
14 13 13 11 10 8 6 5 5 4 3 2 2 2 2 2 3 3 2 2 3 3 3 5 6 7 8 9 11 12 14 15 16 17 17 17 18 19 19 20 19 19 19 19 18 17 16 15 14
12 11 11 10 9 7 6 4 5 4 3 2 2 2 2 3 3 3 3 3 3 4 5 6 7 8 9 11 12 14 15 16 17 17 18 19 19 20 20 21 20 20 19 19 18 17 16 15 14
11 11 10 10 9 8 6 4 4 4 3 2 2 3 3 3 4 4 4 4 5 5 6 7 8 9 10 11 13 15 16 17 17 18 19 19 20 20 21 21 21 21 20 19 19 18 17 16 15
11 10 10 9 9 9 6 4 3 2 2 3 3 4 4 4 5 5 6 6 6 7 7 9 10 11 12 13 15 16 17 18 18 19 20 21 21 22 21 21 22 21 21 20 19 19 17 16 16
11 11 10 9 9 9 7 4 4 3 4 4 5 5 5 5 5 7 7 7 8 8 9 10 11 12 13 15 16 17 18 19 20 21 22 23 24 24 23 24 23 22 22 21 20 19 18 17 17
10 11 10 10 9 8 7 5 6 5 5 5 5 6 6 6 6 7 8 9 9 10 11 11 12 13 15 16 18 19 19 20 22 23 24 25 25 26 26 25 25 24 23 22 21 21 20 19 18
Wind_Direction
203 199 191 182 175 167 157 143 126 117 127 131 125 124 127 121 121 145 164 202 43 29 15 360 347 347 341 335 327 322 320 318 315 312 312 307 303 302 301 300 298 296 291 286 281 279 276 273 270
206 200 196 186 186 181 172 153 140 126 118 121 119 120 113 109 97 120 100 77 41 7 358 343 339 337 336 335 330 330 327 325 319 317 315 311 310 308 306 304 301 299 293 288 284 282 279 275 269
207 200 197 192 193 191 181 159 146 136 119 117 125 121 111 112 94 86 67 62 36 16 351 336 332 340 341 337 334 334 332 333 328 324 324 318 316 313 310 307 303 300 293 287 285 283 281 278 272
207 201 199 198 202 202 191 175 161 145 131 125 123 116 109 118 97 71 63 61 44 29 8 357 356 353 345 336 331 330 331 334 334 330 328 321 319 319 314 309 305 302 296 289 286 284 281 278 274
205 203 203 203 209 208 198 184 168 151 150 151 128 113 110 111 114 76 67 57 39 25 10 6 357 347 344 338 333 331 333 334 335 334 329 327 326 323 318 313 309 306 300 295 289 287 283 279 274
204 205 206 206 207 200 199 197 186 160 159 163 166 137 92 101 103 102 57 38 33 21 15 15 358 349 349 347 341 336 333 332 331 330 327 325 323 321 319 317 312 308 302 297 293 289 287 282 276
203 202 205 205 204 207 207 204 185 176 170 176 195 208 74 16 9 73 49 31 22 5 6 8 358 345 342 340 338 336 332 331 330 328 326 324 320 319 319 319 315 309 305 301 297 292 288 282 276
202 201 200 198 202 206 204 200 191 190 198 204 212 220 220 290 3 5 354 344 340 349 346 331 332 338 335 337 339 338 337 335 332 329 328 326 324 322 322 321 318 313 309 305 300 295 291 284 278
203 202 201 201 202 201 203 203 198 200 208 219 223 226 231 247 225 288 304 290 294 319 320 319 313 317 321 329 334 337 337 336 335 335 333 331 329 327 326 323 320 317 313 308 302 299 295 287 279
203 204 204 202 203 200 202 203 202 209 214 224 231 238 246 249 260 274 268 255 260 285 297 305 307 313 323 328 329 332 337 338 338 339 338 335 332 332 330 327 323 319 316 312 307 301 297 289 281
202 201 198 198 198 201 200 201 204 211 225 234 238 240 254 246 246 254 253 244 242 258 265 282 295 307 315 320 324 330 335 337 339 339 339 337 334 333 332 330 327 323 319 315 310 305 300 292 284
200 201 199 195 199 209 210 205 202 209 228 234 242 239 253 262 261 263 274 267 247 256 261 269 297 307 313 320 328 334 336 337 338 337 337 338 337 337 336 334 331 328 324 320 314 307 303 296 287
201 201 199 197 200 201 206 212 213 225 230 230 233 233 238 258 263 266 259 232 238 246 259 266 295 309 312 321 328 334 335 337 339 338 339 340 340 340 340 338 335 332 329 326 321 314 306 298 290
197 201 198 193 194 199 206 212 224 235 228 226 229 225 220 227 248 271 250 219 213 240 272 284 297 307 319 326 331 335 337 340 340 340 341 340 340 342 342 342 340 337 334 330 326 321 313 305 296
193 196 194 192 193 193 198 206 217 221 219 224 230 227 220 230 255 279 234 206 213 241 272 290 309 328 337 334 334 338 339 341 341 340 341 340 340 340 341 342 342 340 338 334 330 325 319 311 302
192 192 195 190 186 189 195 199 210 212 219 224 223 222 225 229 238 234 223 231 219 239 276 308 334 345 344 341 341 340 338 339 340 341 341 340 338 339 341 342 342 342 340 337 334 329 323 317 309
188 187 188 189 184 188 196 195 205 209 211 207 207 216 222 215 214 228 214 196 187 209 324 340 345 346 346 345 344 342 340 339 340 340 340 338 337 338 339 340 342 342 341 339 336 333 329 324 316
186 185 184 182 181 185 190 193 199 205 206 206 206 213 216 210 208 191 177 167 162 188 262 347 348 349 346 344 343 344 342 340 341 340 339 339 338 338 338 340 341 342 342 341 339 335 331 327 322
184 180 175 174 175 182 185 190 196 197 193 195 205 208 202 206 206 189 180 179 177 184 241 307 343 349 346 347 344 343 343 342 341 340 340 340 339 338 339 340 340 341 341 341 341 339 334 330 325
177 176 176 175 172 177 180 184 188 189 185 179 187 184 182 185 193 186 179 181 180 191 264 315 340 341 340 343 344 345 344 342 340 340 339 338 337 338 339 339 339 340 340 341 341 340 338 334 328
170 170 170 168 170 172 172 175 177 177 178 175 179 180 176 178 175 173 181 173 170 179 245 330 345 341 339 342 344 344 344 343 342 340 339 337 336 336 337 338 338 339 339 339 339 338 337 335 331
168 169 172 172 174 170 174 177 185 185 179 180 182 177 167 167 170 180 183 183 186 199 273 331 339 337 339 343 344 343 342 342 341 340 339 338 338 337 337 337 337 337 337 337 337 337 335 335 333
166 168 171 177 180 180 181 175 172 181 180 181 183 177 162 159 168 182 186 197 215 250 285 310 324 331 336 339 339 339 338 338 338 337 337 338 338 337 335 335 334 334 334 334 335 335 335 334 333
169 172 175 182 183 180 177 176 163 165 170 179 182 177 169 173 186 194 201 218 239 264 290 310 320 325 329 331 334 335 335 335 335 335 335 336 336 335 334 332 332 332 332 331 332 333 334 333 332
174 181 186 190 189 183 180 166 151 155 161 177 184 193 196 210 218 219 224 231 248 272 302 311 314 319 325 330 333 334 334 334 334 334 334 334 332 332 332 331 331 330 330 330 330 330 330 331 330
179 183 194 199 195 187 187 178 169 171 166 170 187 211 230 235 237 243 252 259 275 298 305 309 312 317 322 325 326 327 328 329 330 331 331 331 330 330 330 329 330 329 328 327 327 326 326 325 325
180 184 187 196 202 203 198 181 173 181 195 210 217 228 248 251 249 252 263 268 278 290 297 304 309 312 315 318 320 322 322 325 326 327 327 327 327 327 327 326 326 326 325 324 323 322 321 320 320
185 190 199 209 212 212 209 193 170 179 212 237 250 252 258 260 260 263 268 272 279 287 295 302 305 307 310 312 315 317 319 320 321 323 324 325 325 324 324 323 323 322 321 320 320 320 319 316 314
196 203 207 214 216 216 216 214 215 219 233 247 259 262 260 259 261 267 271 274 279 286 293 298 301 304 308 311 314 315 317 318 319 320 321 322 322 322 322 321 320 318 316 315 315 315 315 315 313
202 213 217 222 227 230 232 225 233 235 242 251 258 262 263 266 269 273 277 279 282 287 293 296 299 303 307 310 313 314 315 316 317 318 318 318 318 318 318 317 315 313 311 310 309 309 308 308 309
Height
5877 5877 5878 5879 5880 5880 5879 5879 5879 5880 5880 5880 5881 5881 5882 5883 5884 5886 5884 5883 5883 5883 5883 5883 5883 5883 5882 5882 5882 5881 5881 5880 5880 5879 5878 5877 5877 5876 5875 5874 5873 5872 5871 5870 5869 5869 5868 5867 5867
5875 5876 5878 5879 5879 5879 5879 5879 5879 5880 5880 5880 5880 5881 5882 5882 5883 5882 5882 5882 5883 5883 5883 5882 5882 5882 5882 5882 5881 5881 5880 5879 5879 5878 5877 5876 5875 5874 5873 5872 5871 5870 5869 5868 5867 5866 5865 5865 5864
5873 5875 5877 5877 5877 5878 5879 5879 5879 5879 5880 5880 5881 5881 5881 5882 5882 5882 5882 5882 5882 5882 5882 5882 5882 5882 5881 5881 5880 5880 5879 5878 5877 5877 5876 5875 5874 5873 5872 5870 5869 5868 5867 5866 5865 5864 5863 5862 5862
5871 5874 5876 5876 5876 5877 5878 5878 5879 5879 5879 5880 5881 5881 5881 5882 5882 5882 5882 5882 5882 5882 5882 5882 5881 5881 5881 5880 5880 5879 5878 5877 5877 5876 5875 5874 5873 5871 5870 5869 5867 5866 5865 5863 5862 5861 5860 5860 5859
5869 5872 5873 5874 5875 5875 5876 5877 5879 5879 5879 5880 5880 5881 5881 5882 5881 5881 5881 5882 5881 5881 5881 5881 5881 5881 5880 5880 5879 5878 5877 5876 5876 5875 5874 5872 5871 5870 5869 5867 5865 5864 5862 5861 5860 5858 5858 5857 5856
5868 5870 5872 5872 5873 5874 5875 5876 5878 5879 5879 5879 5880 5881 5881 5881 5881 5880 5881 5881 5881 5881 5881 5881 5880 5880 5879 5879 5878 5877 5876 5875 5874 5873 5872 5871 5870 5868 5866 5865 5863 5861 5860 5858 5857 5856 5855 5854 5853
5866 5868 5869 5871 5872 5873 5875 5876 5877 5878 5878 5879 5880 5880 5880 5881 5881 5880 5880 5881 5881 5880 5880 5880 5880 5879 5879 5878 5877 5876 5875 5874 5873 5872 5871 5869 5868 5866 5864 5863 5861 5859 5857 5856 5855 5853 5852 5851 5850
5863 5866 5867 5869 5871 5872 5873 5875 5876 5877 5878 5878 5879 5879 5880 5880 5880 5880 5880 5880 5880 5880 5880 5879 5879 5878 5878 5877 5876 5875 5874 5873 5872 5870 5869 5867 5866 5864 5862 5860 5858 5856 5855 5853 5852 5850 5849 5848 5847
5860 5864 5865 5867 5869 5870 5872 5873 5875 5876 5877 5877 5878 5879 5880 5880 5879 5880 5880 5880 5880 5879 5879 5879 5878 5878 5877 5876 5875 5874 5873 5872 5870 5869 5867 5865 5864 5862 5860 5858 5856 5854 5852 5850 5849 5847 5846 5845 5844
5858 5861 5863 5866 5867 5869 5870 5873 5874 5875 5875 5876 5877 5878 5878 5878 5878 5879 5879 5879 5879 5879 5878 5878 5877 5876 5876 5875 5874 5873 5872 5870 5869 5867 5865 5864 5862 5860 5858 5856 5854 5852 5849 5847 5846 5844 5842 5841 5840
5856 5859 5861 5863 5866 5868 5870 5871 5872 5873 5874 5875 5876 5876 5877 5877 5878 5878 5878 5878 5878 5878 5877 5877 5877 5876 5875 5874 5873 5872 5870 5869 5867 5866 5864 5862 5861 5858 5856 5854 5852 5849 5847 5845 5843 5841 5839 5838 5837
5854 5857 5860 5862 5864 5867 5868 5870 5871 5872 5874 5874 5875 5875 5876 5875 5876 5877 5876 5876 5877 5877 5877 5876 5876 5875 5874 5873 5872 5871 5869 5868 5866 5864 5863 5861 5859 5857 5854 5852 5849 5846 5844 5841 5839 5837 5835 5834 5833
5853 5856 5859 5861 5863 5865 5867 5869 5870 5871 5872 5872 5873 5874 5875 5875 5876 5875 5875 5875 5875 5875 5875 5875 5875 5874 5873 5872 5871 5870 5868 5867 5865 5863 5861 5859 5857 5855 5852 5849 5847 5844 5841 5838 5836 5834 5832 5831 5830
5851 5854 5857 5860 5862 5864 5866 5868 5869 5869 5870 5871 5872 5873 5874 5874 5874 5874 5874 5874 5874 5874 5874 5874 5873 5872 5872 5871 5870 5868 5867 5865 5863 5861 5859 5857 5855 5853 5850 5848 5845 5842 5839 5836 5833 5831 5829 5827 5826
5849 5854 5857 5859 5861 5863 5865 5867 5867 5868 5869 5870 5871 5871 5872 5873 5873 5873 5873 5873 5873 5873 5873 5873 5872 5871 5870 5869 5868 5867 5865 5864 5862 5860 5858 5856 5854 5851 5848 5846 5843 5840 5837 5834 5831 5828 5826 5824 5823
5848 5852 5855 5858 5860 5862 5865 5865 5866 5866 5867 5868 5869 5870 5871 5871 5872 5872 5872 5872 5872 5872 5872 5872 5871 5870 5870 5868 5867 5866 5864 5862 5860 5858 5856 5854 5852 5849 5847 5844 5841 5838 5835 5832 5829 5826 5823 5821 5819
5848 5851 5854 5857 5858 5860 5863 5864 5865 5865 5866 5867 5868 5869 5870 5870 5871 5871 5872 5871 5871 5871 5871 5871 5870 5870 5869 5868 5866 5865 5863 5861 5859 5857 5855 5852 5850 5847 5845 5842 5839 5836 5833 5829 5826 5823 5821 5818 5816
5848 5851 5853 5856 5858 5860 5861 5863 5864 5864 5865 5866 5867 5868 5869 5869 5870 5870 5870 5870 5870 5871 5871 5870 5870 5869 5868 5867 5865 5864 5862 5860 5858 5855 5853 5851 5848 5846 5843 5840 5837 5834 5831 5827 5824 5821 5818 5816 5814
5847 5850 5853 5855 5857 5859 5860 5861 5863 5863 5864 5865 5866 5866 5867 5867 5868 5868 5869 5869 5870 5870 5870 5870 5869 5868 5867 5866 5864 5862 5860 5858 5856 5854 5852 5849 5846 5844 5841 5838 5835 5832 5829 5825 5822 5819 5816 5813 5811
5847 5850 5852 5855 5856 5858 5859 5860 5861 5862 5863 5864 5864 5865 5866 5866 5867 5867 5868 5868 5868 5869 5869 5869 5868 5867 5866 5865 5863 5861 5859 5857 5855 5853 5850 5847 5845 5842 5839 5836 5833 5830 5827 5823 5820 5817 5814 5811 5809
5847 5850 5852 5854 5856 5857 5858 5859 5860 5861 5862 5862 5863 5864 5865 5865 5866 5866 5867 5867 5868 5868 5868 5868 5867 5866 5865 5864 5862 5860 5858 5856 5854 5851 5849 5846 5843 5840 5837 5835 5831 5828 5825 5822 5818 5815 5812 5809 5807
5847 5850 5852 5854 5855 5856 5859 5859 5860 5860 5861 5861 5862 5863 5864 5864 5865 5865 5866 5866 5866 5867 5867 5866 5866 5865 5864 5862 5860 5859 5857 5855 5852 5850 5847 5844 5841 5838 5835 5832 5829 5826 5823 5820 5816 5813 5810 5807 5805
5848 5849 5852 5853 5854 5856 5857 5858 5860 5859 5860 5861 5861 5862 5863 5863 5864 5864 5864 5865 5865 5865 5865 5865 5864 5864 5862 5861 5859 5857 5855 5853 5851 5848 5845 5842 5839 5836 5833 5830 5827 5824 5821 5818 5814 5811 5808 5805 5803
5848 5850 5851 5852 5854 5856 5856 5858 5859 5858 5859 5860 5861 5861 5862 5862 5863 5863 5863 5864 5864 5864 5864 5863 5863 5862 5861 5859 5857 5856 5854 5851 5849 5846 5843 5840 5837 5834 5831 5828 5825 5822 5819 5815 5812 5809 5806 5803 5801
5848 5850 5852 5852 5853 5855 5855 5856 5858 5858 5858 5859 5860 5860 5861 5861 5861 5862 5862 5862 5862 5862 5862 5862 5861 5860 5859 5857 5855 5853 5851 5849 5846 5844 5841 5838 5835 5832 5828 5825 5822 5819 5816 5813 5810 5807 5804 5801 5799
5847 5850 5852 5853 5853 5854 5854 5855 5857 5857 5857 5858 5859 5859 5860 5860 5860 5860 5861 5861 5860 5860 5860 5860 5859 5858 5856 5855 5853 5851 5849 5847 5844 5841 5838 5835 5832 5829 5825 5822 5818 5815 5812 5809 5807 5804 5801 5799 5797
5848 5849 5851 5852 5852 5853 5853 5854 5855 5855 5856 5857 5858 5858 5859 5859 5859 5859 5859 5859 5859 5859 5858 5858 5857 5856 5854 5853 5851 5849 5847 5844 5841 5838 5835 5832 5829 5825 5821 5818 5815 5812 5809 5806 5803 5801 5798 5796 5794
5848 5849 5850 5851 5851 5851 5853 5853 5854 5854 5855 5855 5856 5857 5857 5857 5857 5857 5857 5857 5857 5857 5856 5855 5854 5853 5852 5850 5848 5846 5843 5841 5838 5835 5832 5828 5825 5821 5817 5814 5811 5808 5805 5802 5799 5797 5795 5793 5791
5848 5849 5849 5850 5850 5851 5852 5855 5854 5854 5854 5854 5855 5855 5855 5856 5856 5855 5855 5855 5855 5854 5854 5853 5852 5850 5849 5847 5845 5842 5840 5837 5834 5831 5827 5824 5820 5816 5813 5809 5806 5803 5800 5797 5795 5793 5791 5789 5787
5846 5847 5848 5849 5850 5850 5851 5856 5853 5853 5853 5853 5853 5853 5853 5853 5853 5853 5853 5853 5852 5851 5851 5850 5848 5847 5845 5843 5841 5838 5836 5833 5830 5826 5823 5819 5815 5811 5808 5804 5800 5797 5794 5792 5790 5788 5786 5785 5783